{"data":{"norad_id":57859,"epoch":"2026-05-25T02:58:24.350016Z","epoch_age_seconds":65124,"freshness":"FRESH","line1":"1 57859U 23141V   26145.12389294 -.00000167  00000+0  64803-5 0  9991","line2":"2 57859  53.1615 288.8628 0001282  96.8402 263.2745 15.30194218152035","mean_motion":15.30194218,"eccentricity":0.0001282,"inclination_deg":53.1615,"raan_deg":288.8628,"arg_perigee_deg":96.8402,"mean_anomaly_deg":263.2745,"bstar":6.4803e-6,"rev_number":15203,"period_min":94.105701293403,"perigee_km":474.35373153492,"apogee_km":476.11093543203,"semimajor_km":6853.3693334835,"source":"CELESTRAK","updated_at":"2026-05-25T13:38:18.444057Z"}}